sat.trackr.live / text

‹ back to catalog

STARLINK-3972

NORAD 52669 · 2022-053P

PAYLOAD ACTIVE UNKNOWN

§ Identity

Operator
Country
US
Launch date
2022-05-18
Launch site
AFETR
Launch vehicle
Mass (kg)
RCS (m²)

Purposes: comms

External: N2YO · Heavens-Above · Gunter

§ Orbital elements

Epoch: 2026-05-24T08:37:38.157024Z

Period
95.44 min
Inclination
53.2135°
Eccentricity
0.0001165
Mean motion
15.08856034 rev/d
Perigee alt
538.9 km
Apogee alt
540.5 km
Semi-major
6,917.8 km
B*
-2.6227e-4
RAAN
174.4267°
Arg perigee
64.7384°
Mean anomaly
295.3729°
Rev number
22,246

§ Raw data

STARLINK-39721 52669U 22053P   26144.35946941 -.00004461  00000+0 -26227-3 0  99962 52669  53.2135 174.4267 0001165  64.7384 295.3729 15.08856034222468

JSON: /api/v1/satellites/52669 · /tle

For live sub-satellite position, see the globe view (requires WebGL).

§ Visibility from observer

Set your observer location to see the next 7 days of passes ≥ 10°. The values pass through the URL so the page stays shareable.

No JS? Fill the form by hand. The geolocation button needs JavaScript.